Theta_e
300 301 301 303 303 304 304 305 305 305 307 307 305 306 307 309 304 302 309 311 309 310 312 314 315 317 318 316 318 322 326 323 327 334 328 330 334 337 339 345 349 350 350 352 353 352 352 350 350 350 350 351 353 354 353 354 352 353 357 359 360 359 361 362 362 364 365 365 366 365 365 367 366 365 365 366 365 365 366 366 365 365 365 364 367 368 369
299 300 301 302 302 303 303 304 305 306 306 306 307 307 308 307 308 309 310 312 310 312 313 314 316 318 318 318 321 323 322 319 332 329 330 323 322 331 340 344 346 351 352 353 355 354 355 350 350 349 350 352 351 352 352 352 354 355 357 359 360 361 361 362 363 365 365 367 367 367 366 365 367 366 365 365 365 365 365 366 368 367 367 366 365 366 367
299 300 301 301 301 302 301 303 304 304 305 306 306 306 307 309 308 308 309 310 309 314 319 317 318 319 318 319 318 317 320 320 320 321 321 322 323 324 332 348 346 349 352 353 355 356 355 353 351 351 352 352 352 350 352 353 355 355 355 359 360 361 361 363 364 366 367 366 367 366 367 366 368 367 366 366 366 367 366 367 367 368 367 365 364 364 366
297 300 299 300 301 301 300 301 302 303 303 303 305 304 307 306 306 308 308 307 308 314 317 318 318 318 318 318 319 319 319 318 319 320 320 322 324 325 326 342 345 349 350 351 351 353 354 354 354 353 354 352 352 351 352 353 353 352 353 357 360 362 362 364 365 366 366 367 367 367 367 367 368 368 367 366 366 367 366 366 368 368 366 365 366 365 365
296 299 299 298 299 299 297 299 302 304 305 306 307 308 309 308 309 306 304 306 312 315 317 316 317 316 317 317 316 318 319 323 321 321 322 322 323 324 335 347 350 345 342 346 353 350 350 352 352 352 354 351 354 354 354 356 356 352 352 355 361 363 362 365 365 366 367 367 367 367 367 368 368 369 368 366 366 366 365 367 367 367 367 366 366 366 365
295 297 297 298 296 291 294 307 308 307 305 305 304 305 307 309 310 308 311 311 315 316 315 314 316 316 317 318 321 322 322 322 322 323 325 322 323 323 328 340 340 346 349 347 345 348 353 353 351 353 355 352 354 356 355 356 356 356 355 355 359 361 361 363 365 366 367 367 366 367 368 368 368 368 367 366 366 365 366 367 367 366 367 366 367 367 366
292 296 296 293 290 292 306 308 311 310 309 308 307 308 309 309 311 311 311 312 313 315 316 317 319 320 320 319 319 319 320 324 324 325 325 327 333 339 342 351 348 353 357 356 355 351 349 349 352 352 351 351 354 357 354 354 357 356 354 356 357 360 361 363 365 365 366 366 366 367 368 368 368 367 367 367 366 365 364 364 365 366 366 366 366 367 367
295 294 294 287 291 302 304 307 312 314 311 314 312 309 312 312 312 312 311 312 313 315 315 316 318 320 319 319 323 331 328 328 333 325 324 326 329 334 343 351 358 362 360 359 357 355 352 349 349 352 351 351 351 356 356 356 356 355 356 357 356 360 362 362 363 365 365 365 365 366 366 366 366 365 366 367 366 366 365 364 366 367 368 367 366 367 367
289 292 293 293 302 300 302 302 309 312 309 314 309 303 306 311 313 317 321 320 316 314 315 316 316 318 317 318 323 323 324 331 334 329 328 327 340 349 355 353 352 357 360 359 360 361 357 351 349 350 351 351 352 355 354 353 356 356 356 357 357 360 361 362 362 364 365 364 364 364 365 365 365 364 365 366 367 368 365 364 363 365 366 366 367 366 366
294 291 290 292 292 290 297 305 315 318 318 317 318 313 310 319 323 324 324 322 323 320 318 317 317 317 316 316 317 322 322 328 336 336 335 344 348 348 350 354 353 356 358 359 360 359 358 353 351 351 350 352 354 356 355 354 354 355 354 355 357 360 361 362 363 365 365 365 364 364 365 364 364 364 364 366 366 367 365 363 362 363 365 366 367 367 365
292 291 288 289 289 294 306 307 313 316 318 314 321 307 302 321 323 324 325 322 326 327 327 329 327 319 313 313 317 321 322 326 337 340 345 344 346 351 351 351 352 353 357 359 359 360 360 351 352 352 352 353 354 355 355 350 351 352 353 355 356 357 361 363 364 365 364 364 364 363 364 363 363 364 364 365 366 367 366 366 364 365 364 365 366 367 364
291 291 289 288 294 294 305 312 313 316 316 314 315 298 300 319 323 323 326 324 327 330 332 333 329 323 314 313 319 341 338 343 347 348 351 350 349 350 351 352 354 355 356 359 358 354 353 353 353 354 351 352 356 355 351 349 350 352 354 356 359 360 362 363 363 364 364 365 365 363 364 365 366 365 366 365 365 365 366 365 365 364 363 364 364 365 365
291 289 290 293 295 302 303 308 314 315 314 310 301 295 312 319 323 324 326 325 327 329 329 332 327 329 327 331 340 342 345 343 345 348 348 349 347 348 348 350 350 354 355 355 355 357 361 361 355 353 353 354 356 356 355 352 351 353 357 360 361 362 363 363 363 364 364 365 364 364 365 365 366 365 366 365 365 365 364 365 365 364 364 364 363 365 364
290 291 288 289 295 302 304 306 306 309 306 298 298 317 320 324 322 327 326 326 329 330 330 330 332 334 336 337 339 340 340 344 346 346 346 347 347 347 348 347 350 354 354 356 355 353 355 355 353 352 354 355 357 356 355 353 355 356 359 362 364 364 365 364 362 363 364 365 366 365 366 367 367 365 366 366 366 366 364 365 366 365 366 364 361 361 361
293 293 290 288 284 298 303 305 304 307 300 303 318 319 322 323 324 324 327 328 330 330 331 333 333 334 335 335 337 342 343 343 345 346 346 346 345 346 347 348 349 350 353 353 354 356 357 358 356 357 357 357 358 358 356 357 359 361 363 364 366 365 366 364 364 363 365 365 365 366 366 366 366 366 367 366 366 367 367 366 365 364 363 362 361 359 360
289 289 287 288 298 309 313 310 302 308 310 314 321 320 312 323 324 327 326 330 331 330 330 331 332 334 335 338 341 342 342 342 343 343 343 344 344 345 346 346 348 349 350 352 353 355 358 364 361 357 359 358 358 358 362 367 366 366 366 365 366 364 364 364 363 363 364 365 368 367 366 366 366 367 366 366 366 366 366 364 361 361 361 360 360 359 358
296 292 296 302 306 308 311 312 314 315 320 322 324 323 322 321 324 328 327 329 330 331 332 332 333 332 335 336 336 337 339 339 340 341 341 342 343 344 345 345 349 351 350 350 351 353 355 359 363 365 362 362 363 361 363 365 363 361 362 362 363 362 363 363 363 364 364 365 365 364 364 364 365 365 366 367 364 364 364 362 360 359 359 360 358 359 359
303 304 304 306 306 307 309 311 314 314 317 321 322 322 321 326 327 328 326 328 328 330 333 331 332 332 333 334 335 336 337 338 339 339 340 341 343 344 346 347 349 351 352 352 352 353 354 357 358 359 360 360 357 357 361 365 368 366 363 361 360 360 361 361 361 362 362 362 365 367 367 366 367 366 366 364 362 362 361 360 361 361 360 358 358 359 358
295 291 303 303 305 307 309 310 313 314 317 320 322 323 326 327 328 328 328 328 329 330 333 332 333 332 333 333 335 337 338 338 339 340 341 342 344 345 345 346 347 350 351 350 349 349 350 353 355 356 357 356 357 358 359 361 365 367 367 364 361 361 361 361 363 363 362 360 361 363 367 364 362 362 362 362 362 360 360 360 361 360 360 360 359 357 357
294 294 300 302 304 305 307 308 309 311 315 320 323 324 325 327 328 327 328 328 328 330 331 333 332 333 334 334 335 336 338 339 340 341 341 343 344 346 347 347 347 349 349 348 347 347 347 349 350 351 352 354 356 358 359 361 364 365 364 365 364 365 364 364 363 363 363 358 360 360 359 360 358 358 360 361 359 359 360 360 360 359 359 358 358 358 358
297 301 302 303 305 306 306 307 309 312 314 318 321 323 325 325 326 326 327 327 328 328 329 331 333 333 334 334 335 335 336 338 339 340 342 343 343 345 345 346 346 346 346 345 345 345 344 347 348 349 350 351 353 355 357 360 361 361 359 358 362 363 363 363 362 364 363 361 358 358 359 362 361 363 364 366 367 367 369 370 367 365 365 363 362 364 362
292 294 298 304 298 298 303 307 311 316 321 324 322 323 323 325 326 327 326 325 327 327 327 328 330 331 331 334 335 335 335 336 338 340 341 342 342 342 343 344 345 344 344 344 343 343 344 345 346 347 347 348 350 352 356 358 358 356 356 357 358 358 359 359 360 359 360 360 361 360 360 360 361 360 340 326 346 360 361 340 323 314 319 347 353 350 351
292 300 303 306 306 306 308 311 314 315 315 314 317 320 323 325 327 327 327 325 325 325 326 328 329 329 330 331 334 333 334 336 338 339 340 340 340 342 342 342 342 342 342 343 343 343 344 344 345 345 345 346 347 349 352 353 353 353 353 351 351 351 352 352 351 353 352 354 355 355 354 352 352 349 348 349 311 305 317 318 313 305 303 303 303 307 327
301 303 303 305 303 301 305 308 309 308 313 314 312 314 321 327 327 327 326 326 325 325 325 326 327 329 331 332 332 331 333 336 337 338 340 341 341 342 342 341 341 341 341 342 341 341 342 343 344 345 345 346 347 347 349 350 351 351 351 350 349 348 348 348 349 349 348 346 346 346 346 346 347 344 342 345 351 319 307 318 313 304 302 301 300 300 301
299 305 305 306 306 306 308 309 309 310 313 314 311 312 318 326 327 327 324 323 325 326 324 324 327 330 328 329 331 330 331 333 334 335 335 336 339 339 339 340 340 340 340 341 341 342 342 342 342 342 343 344 346 346 347 347 347 347 347 347 347 346 345 344 342 343 343 345 344 343 342 343 343 345 341 339 339 342 349 308 307 311 307 302 299 299 299
304 305 306 307 308 306 307 307 308 311 314 314 314 316 323 327 326 325 323 323 322 325 325 325 325 327 328 328 328 329 330 330 332 335 335 336 337 338 337 338 339 341 341 341 341 341 341 343 343 343 343 344 344 345 344 346 345 345 345 346 346 346 344 345 344 344 343 344 343 344 347 347 345 341 340 342 341 341 339 339 347 325 305 301 303 305 304
304 305 305 304 304 305 307 306 307 313 314 314 316 322 325 324 324 323 323 323 322 323 323 323 325 326 328 328 328 329 328 330 332 334 335 335 335 336 337 339 339 340 340 341 342 342 341 342 341 341 342 344 347 348 347 347 347 346 345 343 342 341 342 342 343 342 341 340 340 342 344 346 343 339 341 343 343 339 338 337 338 339 341 342 313 304 316
303 304 305 302 303 305 309 311 312 315 315 316 319 321 322 324 324 321 320 320 320 321 321 323 323 324 325 328 330 329 329 330 330 331 332 332 334 337 338 338 338 339 339 340 341 342 342 342 341 342 343 346 346 347 346 347 347 346 345 344 342 341 342 341 340 340 339 340 341 340 343 343 343 340 338 339 339 339 338 338 338 339 338 339 340 324 311
302 304 306 307 309 309 310 312 313 314 315 319 321 323 322 321 319 318 318 319 321 322 319 320 324 326 327 328 328 327 327 327 329 330 331 333 335 335 337 337 337 337 337 337 337 340 341 341 342 341 342 344 345 347 346 345 345 343 343 342 342 342 341 342 342 342 342 341 341 340 336 338 339 340 341 339 338 338 338 337 338 339 339 341 341 342 333
304 307 308 308 309 310 309 309 310 315 318 320 320 321 321 320 318 318 318 318 319 319 320 322 323 323 326 325 326 326 325 325 327 329 331 332 333 334 335 336 336 336 336 334 335 336 337 338 339 339 340 343 342 344 343 344 342 343 343 343 342 342 343 344 344 343 342 341 340 337 340 339 339 339 338 340 340 337 335 335 336 337 339 338 331 335 334
308 310 311 311 311 311 310 310 314 317 318 318 320 320 319 320 318 317 317 318 319 318 319 320 322 323 322 323 325 325 325 325 326 326 328 329 330 331 332 333 330 329 330 332 333 333 334 336 337 337 340 341 343 344 343 342 342 341 342 342 341 327 327 330 333 343 342 340 339 340 339 338 340 337 335 336 338 336 337 336 336 336 335 336 335 332 330
307 308 311 311 311 312 312 314 316 317 318 319 319 317 317 317 317 316 316 317 318 320 321 320 320 320 322 323 324 323 323 323 324 324 325 327 328 330 331 332 332 331 332 334 334 333 333 333 334 336 339 339 340 342 343 343 343 341 340 341 341 343 337 331 339 338 339 339 338 338 338 338 337 337 336 336 337 337 336 335 335 335 334 332 329 329 327
307 307 308 309 310 310 311 313 313 315 318 318 319 318 319 320 320 320 319 319 320 320 321 320 320 320 320 322 322 322 323 323 323 323 323 325 325 327 329 329 330 330 330 331 332 333 333 333 334 335 337 338 338 338 337 340 340 341 342 342 342 341 339 333 335 338 340 337 337 336 337 336 335 337 335 335 336 335 334 333 332 331 331 330 330 331 327
310 309 310 312 312 310 310 313 318 317 319 320 319 318 318 319 319 321 321 321 320 320 320 320 320 320 320 320 321 322 322 321 320 321 322 323 324 325 327 328 329 330 330 330 331 331 332 334 335 335 335 336 337 335 335 336 338 340 341 342 341 340 339 338 336 338 338 336 336 337 338 338 336 334 334 334 334 335 333 334 333 331 331 332 332 332 319
318 317 319 318 318 318 318 317 317 317 318 317 317 318 318 319 321 321 322 321 319 318 319 321 321 321 321 321 320 321 321 320 320 320 321 321 323 325 327 328 328 328 328 329 330 330 332 334 336 335 335 335 335 336 336 333 334 337 338 338 337 337 339 338 337 336 335 336 337 336 337 337 334 334 334 333 334 333 334 333 333 331 330 331 331 332 329
318 316 316 317 321 320 318 319 318 319 318 318 318 317 317 319 321 321 320 319 320 320 319 319 320 321 320 319 320 321 321 322 322 321 320 320 322 324 325 324 324 323 324 325 327 329 332 333 334 336 335 334 335 336 337 338 335 336 338 335 333 332 334 335 337 337 336 337 335 335 335 334 334 333 333 333 333 333 332 332 333 333 333 332 331 331 332
314 314 316 319 320 318 319 320 321 320 320 320 320 319 318 320 319 319 319 319 320 320 319 320 319 319 319 320 321 321 322 321 321 322 321 321 322 321 321 321 321 321 322 321 325 329 330 330 333 334 333 332 333 336 336 335 336 335 335 334 333 333 331 331 332 334 335 338 335 335 334 336 336 336 333 333 332 332 331 331 331 333 333 331 331 331 331
309 310 309 310 313 315 316 317 318 318 315 316 316 318 318 318 319 318 318 319 318 319 320 320 319 319 319 319 318 318 319 320 321 320 320 320 319 318 318 318 318 320 319 321 325 327 328 330 331 332 333 332 332 333 334 334 336 335 335 333 333 332 331 332 331 331 332 334 335 336 336 335 335 336 335 335 335 334 332 332 330 330 331 330 331 330 330
308 308 309 309 310 310 311 313 315 315 315 314 314 315 317 317 318 317 317 317 318 319 319 319 318 318 317 316 316 317 317 318 319 318 319 318 318 317 316 318 318 319 321 324 323 324 326 328 329 329 329 331 331 330 333 333 333 333 333 333 332 331 332 331 331 330 331 334 332 331 333 331 331 332 332 332 332 331 332 332 330 332 329 331 331 332 331
307 307 307 308 307 308 309 309 310 311 313 313 312 312 313 314 314 314 315 316 317 318 317 317 317 315 315 314 314 314 315 316 317 317 317 317 317 316 316 317 319 320 322 322 322 322 324 326 327 327 327 327 328 329 330 330 331 331 331 330 330 329 329 329 329 328 329 330 329 328 329 329 328 328 328 329 330 329 330 330 331 331 331 330 331 330 329
307 307 307 307 307 307 307 307 308 309 310 311 311 311 312 312 312 312 313 314 315 316 316 316 315 314 315 314 314 314 315 315 316 316 316 316 315 314 313 313 318 319 319 319 320 320 321 322 322 322 323 323 323 326 328 328 328 328 328 327 327 327 326 326 325 325 327 327 326 327 327 327 326 326 326 326 327 328 329 329 328 328 329 328 329 328 328
308 308 308 308 307 307 307 307 308 308 309 310 312 311 311 312 311 311 311 312 312 313 314 314 316 314 315 315 314 314 313 313 314 315 316 315 314 313 312 314 318 317 319 318 318 318 318 318 318 320 320 321 322 323 324 324 324 324 323 323 323 323 323 323 323 324 324 324 324 324 323 323 323 323 323 323 323 323 324 325 326 325 325 325 325 328 328
310 309 309 309 308 308 308 307 307 307 307 309 310 311 312 312 312 312 311 311 311 311 310 310 311 312 312 312 312 312 312 312 312 312 313 313 315 316 315 315 316 315 317 316 315 315 315 316 315 315 318 318 319 321 321 320 320 321 320 320 320 320 320 320 320 322 323 323 321 320 319 319 319 318 318 318 318 318 319 321 321 322 322 323 323 324 323
310 309 309 309 308 309 308 308 307 307 307 307 308 309 309 309 309 309 309 309 309 310 309 309 309 310 311 311 310 310 311 311 310 310 309 309 310 312 313 312 313 314 315 313 313 312 312 313 314 315 316 317 318 318 317 318 317 318 318 318 317 317 317 317 317 317 317 319 318 317 316 314 313 312 312 311 312 312 312 315 318 319 320 321 321 322 323
309 309 309 309 309 308 306 306 305 305 305 306 306 306 306 306 307 308 308 308 308 309 310 309 310 309 308 309 310 311 312 312 312 311 308 307 307 308 311 313 311 312 312 312 311 311 311 311 312 314 315 315 315 316 314 314 315 315 316 316 316 316 315 315 315 314 315 315 315 315 316 314 312 310 309 308 308 308 308 309 310 311 313 315 317 319 321
309 309 309 310 308 307 307 307 307 307 306 305 305 305 306 306 306 307 308 308 308 308 308 309 310 311 311 309 310 310 312 312 313 313 311 310 308 310 312 312 310 311 312 312 311 310 311 314 312 312 313 313 314 312 312 312 312 312 313 313 314 314 314 314 314 314 313 313 312 312 313 314 314 312 309 307 306 305 306 307 307 307 307 308 308 309 312
310 310 311 310 309 309 309 308 308 306 305 305 304 304 306 307 307 307 308 308 308 309 309 309 309 310 311 311 311 311 308 308 310 312 313 312 312 313 314 313 312 310 309 308 309 309 311 311 311 311 312 312 312 311 310 310 310 310 310 311 311 312 312 313 313 314 313 312 312 311 311 311 311 311 309 307 305 304 304 305 306 305 306 305 304 305 305
310 310 311 312 311 311 310 309 307 306 305 304 305 305 306 307 307 307 307 307 307 307 307 308 309 310 310 311 312 311 311 310 307 308 311 311 311 311 311 312 312 311 309 309 309 310 310 310 311 311 311 311 309 309 309 308 308 308 308 307 308 309 309 310 311 311 311 311 311 312 310 310 310 309 308 307 305 304 303 303 303 304 305 304 303 302 302
311 310 310 311 311 311 310 309 308 308 307 307 307 306 307 307 307 307 307 307 307 307 306 307 308 308 309 310 311 310 311 312 310 308 311 311 310 310 310 311 311 311 311 309 308 308 309 309 309 309 310 310 309 308 308 307 308 308 307 306 306 306 307 306 307 308 308 309 309 309 310 308 308 308 307 306 306 305 303 302 303 302 302 302 301 302 302
310 309 308 307 307 307 308 308 307 307 307 308 307 307 307 307 305 305 306 307 307 307 306 306 307 307 307 308 308 309 310 310 310 311 310 310 310 310 309 309 310 309 309 309 309 307 309 308 308 308 308 308 308 308 308 308 307 306 306 306 306 305 304 304 303 303 305 306 306 306 306 306 307 306 306 306 305 305 304 303 302 301 301 301 301 301 301
308 307 307 307 307 307 307 307 307 308 307 307 306 306 305 304 303 304 304 305 305 305 304 305 306 306 307 307 307 307 308 309 309 309 309 309 310 309 309 309 308 308 309 308 308 307 307 307 308 308 307 307 306 306 306 306 306 306 305 304 304 305 305 303 303 303 303 303 303 303 304 304 305 305 305 305 304 304 304 304 303 301 300 300 300 300 300
307 308 308 308 306 306 305 305 306 307 307 307 306 305 304 303 302 302 302 304 303 302 302 303 302 304 305 306 306 306 306 307 307 307 307 307 308 308 308 308 308 308 308 308 308 308 307 307 307 307 307 306 306 306 305 305 305 305 305 305 305 304 304 304 304 304 304 303 302 302 302 302 302 302 303 303 303 303 303 304 303 303 302 301 301 300 300
Wind_Speed
4 4 4 4 2 3 2 4 8 16 15 16 22 21 18 16 14 12 7 14 16 15 13 7 5 3 4 5 8 3 6 4 4 2 3 5 7 7 8 9 9 10 11 12 13 14 15 16 18 19 17 17 16 17 17 18 19 20 18 18 19 20 19 19 19 19 17 17 17 17 18 17 18 18 18 17 17 16 16 16 14 16 17 16 16 15 15
5 3 3 4 5 2 5 8 9 9 12 14 15 16 17 21 17 12 13 10 15 13 15 17 16 12 11 10 10 9 8 4 1 2 3 4 2 4 8 9 10 10 11 11 12 12 13 16 18 18 17 17 19 19 18 18 18 18 16 18 19 19 19 19 18 17 17 16 16 17 18 18 18 18 18 17 17 17 17 16 15 14 15 16 16 16 16
5 4 5 4 7 7 8 9 10 11 12 12 13 12 14 14 15 18 17 18 16 10 9 12 12 12 12 13 13 16 16 14 14 13 12 11 9 8 4 8 8 8 9 9 10 12 13 16 17 17 16 17 17 19 18 18 18 18 18 17 18 18 19 18 17 17 16 17 16 18 18 17 17 17 18 16 16 16 16 16 16 14 14 16 16 16 16
7 7 6 7 5 8 11 12 13 13 14 15 13 13 13 15 15 14 13 14 12 9 11 11 13 13 12 12 11 11 13 18 17 17 17 16 15 14 12 2 4 6 8 9 11 13 15 16 17 16 16 16 17 18 18 18 18 18 18 17 18 18 17 15 16 17 16 17 16 17 17 18 17 17 17 17 16 16 16 17 15 15 15 16 16 16 14
7 5 2 4 6 8 13 17 16 16 17 16 14 14 15 16 14 16 17 14 9 9 8 9 9 11 12 14 14 14 14 14 15 16 16 16 17 15 8 5 5 6 8 9 11 13 13 13 15 18 17 16 16 17 17 15 13 17 19 18 16 15 15 15 16 16 15 16 17 16 17 17 16 15 16 17 17 16 17 16 15 16 16 16 16 16 16
5 1 3 4 5 12 12 3 12 19 19 17 19 17 16 15 15 13 12 12 11 11 12 13 10 12 13 13 12 11 12 12 14 16 16 17 17 16 12 8 8 6 5 6 8 10 12 13 14 14 16 18 17 15 15 14 16 17 17 17 16 15 15 15 15 15 15 16 17 17 16 16 15 16 16 17 17 16 15 15 16 16 17 17 16 16 16
6 4 5 6 13 11 4 4 2 2 7 11 15 14 15 17 17 17 18 14 14 11 8 7 8 10 11 12 15 16 15 14 14 14 15 14 11 10 9 8 8 6 5 5 7 8 9 10 11 13 16 17 13 13 16 17 16 17 17 17 15 15 16 16 15 15 16 16 16 15 15 15 15 16 17 16 17 16 15 16 16 16 16 17 16 16 16
6 6 6 11 9 6 3 3 3 1 1 3 6 12 13 11 12 13 15 16 17 16 14 13 11 11 12 13 12 10 13 11 10 14 14 14 13 12 8 7 5 4 6 7 7 6 6 8 10 12 14 14 14 14 16 16 15 16 16 15 15 14 16 17 17 17 17 16 15 14 14 15 15 17 17 16 16 15 14 14 14 14 14 15 16 16 16
9 8 10 13 8 10 7 8 4 3 5 2 4 9 13 15 10 6 5 7 12 15 15 15 14 14 14 12 11 14 14 14 13 14 15 13 9 6 4 5 6 5 7 8 8 7 7 8 10 11 11 13 14 14 16 16 16 15 16 16 17 16 17 17 18 17 17 16 15 15 15 16 17 17 17 16 15 13 15 15 15 15 15 16 14 15 17
8 9 9 9 10 13 9 8 7 5 6 3 2 3 6 3 4 5 3 5 6 9 10 11 14 12 10 12 11 12 15 14 14 12 10 5 4 5 5 4 6 7 8 8 8 8 8 9 9 8 10 12 13 13 15 15 16 16 17 18 17 16 16 16 15 14 14 15 15 16 15 17 17 17 16 15 15 14 15 15 16 16 14 13 14 15 17
9 11 11 11 11 6 5 5 7 6 4 3 3 1 8 7 8 5 4 4 5 6 7 7 7 6 11 11 10 10 13 12 10 9 6 6 3 2 3 5 6 6 6 8 9 8 8 9 9 9 10 12 13 13 14 16 16 16 17 17 17 17 14 13 13 14 14 15 16 16 16 17 17 16 16 14 13 12 13 14 14 13 13 13 13 14 16
11 10 12 13 8 6 5 6 4 6 4 3 5 7 6 10 8 5 3 5 5 6 7 7 7 8 9 9 5 10 5 3 3 3 3 2 1 2 2 3 4 5 6 7 6 8 8 9 8 9 11 11 13 12 13 14 15 16 16 15 13 13 12 13 13 14 14 15 16 17 17 16 14 14 12 12 13 14 13 12 12 13 13 13 15 14 14
12 14 12 9 8 7 7 5 5 3 3 5 6 9 4 4 4 2 4 5 5 5 7 6 7 7 7 7 8 6 3 1 3 2 2 1 2 3 4 3 4 4 3 3 2 1 1 1 5 8 10 11 11 11 11 13 14 13 11 11 12 12 12 13 14 14 13 14 15 15 14 13 13 13 12 13 12 12 13 12 12 12 14 13 14 14 14
13 12 13 13 9 5 5 10 13 3 6 7 9 4 3 1 2 1 2 4 4 5 6 7 8 9 11 12 9 6 4 1 2 1 1 0 1 2 3 3 4 3 1 1 2 3 2 4 5 7 8 9 9 10 11 12 11 9 9 10 10 12 12 13 13 13 13 12 12 12 12 11 11 11 11 11 11 12 12 12 13 13 13 14 15 15 15
10 10 11 10 11 5 12 7 6 11 11 4 6 4 2 4 5 7 3 2 3 4 7 8 9 11 12 12 10 4 2 1 0 1 1 1 1 2 2 1 2 3 1 2 4 4 3 3 4 5 8 9 9 9 9 9 8 8 7 8 9 10 10 11 11 12 11 12 10 10 11 12 12 11 11 11 12 11 12 12 13 15 16 15 14 15 14
11 11 12 8 2 8 10 5 8 3 10 8 5 7 9 4 5 5 7 4 4 5 7 9 10 10 10 8 6 5 1 1 1 1 1 1 2 2 1 1 1 1 2 3 4 5 6 6 5 6 7 8 8 9 8 6 6 6 6 7 8 9 9 10 10 10 10 10 9 9 10 10 11 11 11 11 11 11 12 12 13 14 13 13 13 15 16
7 8 7 4 13 13 10 9 8 12 11 8 7 6 5 5 3 3 5 5 5 6 9 10 10 9 9 8 7 8 5 2 2 3 1 1 0 1 1 2 2 1 3 4 6 8 7 8 8 7 7 9 10 10 7 5 6 6 6 6 7 7 8 9 9 9 10 9 10 10 11 12 11 11 12 12 11 12 12 13 12 13 13 13 13 14 15
10 14 15 14 14 14 13 11 11 13 12 10 7 9 9 4 4 3 4 5 6 7 8 9 8 8 8 9 9 9 6 3 2 1 2 2 2 2 3 4 3 3 4 6 9 11 11 10 9 9 9 9 10 7 5 4 5 5 6 7 7 7 7 8 9 9 10 10 10 10 10 9 10 10 10 11 12 12 13 13 12 13 13 13 14 14 14
7 7 3 10 13 15 14 14 14 14 13 11 8 8 8 8 6 4 3 4 5 5 5 6 6 8 7 7 7 4 2 4 5 5 3 3 4 4 5 5 4 3 4 7 9 10 12 10 9 9 10 9 8 7 6 4 4 5 5 6 6 7 7 7 7 8 8 8 8 8 9 9 9 9 9 10 10 10 11 12 12 12 12 12 13 14 15
12 13 13 16 17 18 19 16 13 12 12 12 11 9 9 9 7 6 4 4 5 4 4 2 3 4 5 6 6 5 4 3 4 4 4 5 4 5 5 5 4 4 5 7 9 10 11 10 10 10 9 9 8 7 6 6 5 5 6 6 7 7 7 6 6 6 6 4 5 7 8 8 8 9 9 9 8 8 9 10 11 12 11 12 12 13 13
12 14 14 16 16 17 18 20 18 14 12 10 12 11 11 10 9 6 3 3 3 3 1 2 3 4 4 4 4 4 4 4 4 4 5 5 6 6 7 6 6 6 6 7 9 10 10 9 10 10 10 9 8 7 6 6 6 7 7 8 8 8 8 7 6 4 6 6 6 5 5 5 3 6 5 3 2 1 1 1 2 3 7 8 9 11 11
14 13 11 8 10 10 10 14 10 9 10 10 11 12 12 12 9 7 5 5 4 3 2 3 0 2 3 4 5 6 5 4 5 6 6 6 7 8 8 8 9 9 8 8 9 10 9 9 9 10 10 9 8 7 7 7 7 8 9 8 8 8 7 7 7 7 6 5 4 3 4 3 2 2 4 2 2 3 3 7 10 7 3 4 7 7 9
12 11 11 9 10 13 13 12 12 11 11 12 14 14 13 12 8 8 8 8 7 6 5 4 4 4 5 3 4 5 4 5 5 6 7 7 8 9 10 11 11 11 10 10 10 11 10 9 10 10 10 9 9 8 8 7 7 8 8 9 8 8 7 7 6 7 6 6 5 5 4 4 3 3 3 2 6 6 4 5 7 9 4 7 9 7 6
19 18 17 16 15 16 16 15 15 16 10 8 12 14 15 11 9 7 6 7 8 7 7 6 5 6 7 6 7 9 7 6 6 6 7 9 9 10 11 12 13 12 11 11 12 12 11 10 11 10 11 11 10 9 8 8 9 9 9 8 9 9 9 9 8 8 7 7 7 6 5 4 4 3 3 5 5 1 1 0 6 7 8 10 10 10 7
17 15 15 15 16 17 14 13 14 14 11 9 12 15 17 11 7 7 7 7 5 7 8 8 7 7 7 5 5 7 7 8 9 9 9 8 8 11 13 14 14 13 12 11 11 11 11 11 12 12 12 12 11 11 10 10 10 10 10 9 10 9 9 9 9 9 8 7 6 6 6 5 5 3 3 3 3 3 3 7 7 5 6 7 7 7 9
14 14 15 17 18 17 13 13 17 18 12 9 12 16 16 9 7 9 8 7 7 7 9 10 10 6 7 9 8 9 9 9 6 7 10 10 10 11 13 14 14 13 12 12 12 12 13 13 13 13 13 12 12 12 12 12 11 11 10 9 10 8 8 9 8 8 7 6 6 6 5 5 4 4 4 4 4 3 2 2 3 5 8 5 2 6 8
16 16 16 18 21 20 15 16 13 10 11 12 13 13 9 9 9 9 9 7 7 7 9 9 9 7 6 9 10 10 12 11 10 10 10 12 12 11 10 12 13 13 14 13 12 11 11 11 13 13 13 13 12 11 11 11 10 10 10 10 9 11 12 8 7 7 6 6 6 5 5 4 3 3 4 3 2 3 3 3 4 5 4 1 6 7 4
17 16 16 18 19 16 12 11 9 11 12 11 12 9 9 10 12 12 11 9 7 9 9 10 10 9 5 6 11 12 13 14 12 12 12 13 12 11 12 13 13 13 13 12 11 11 11 12 12 13 12 11 11 11 11 11 10 10 9 9 8 7 7 8 7 7 6 5 4 4 4 4 3 4 3 3 2 2 2 3 4 5 4 4 6 4 7
18 17 18 20 21 16 11 7 7 11 13 11 10 8 8 12 13 14 10 10 7 9 12 10 7 4 8 10 12 13 13 13 13 13 11 10 11 13 13 14 14 15 14 13 12 10 10 11 11 12 11 10 10 11 11 11 10 9 9 8 7 7 7 7 6 6 6 5 5 4 3 3 3 3 3 3 3 2 3 3 4 4 4 5 7 6 5
17 17 17 18 18 16 14 12 11 12 11 9 8 8 9 15 15 13 11 10 9 10 12 10 8 11 15 15 14 13 13 14 13 12 13 13 12 11 11 11 12 13 14 14 13 12 12 11 11 10 10 10 11 10 11 11 11 11 11 10 9 7 7 7 5 6 5 5 3 1 1 2 2 2 3 2 2 2 3 4 4 5 5 6 7 7 9
16 17 20 17 16 14 14 13 12 11 12 12 9 8 10 15 14 12 12 11 9 10 13 13 13 14 16 15 14 14 14 13 12 13 13 13 13 12 12 11 11 12 13 12 12 11 11 11 11 11 9 10 11 11 11 10 9 9 9 8 8 7 4 7 8 5 5 4 4 3 3 3 3 3 3 3 2 3 3 4 4 5 5 6 6 8 9
18 18 19 17 15 15 14 10 8 10 12 12 12 12 13 16 14 13 12 12 11 11 12 14 16 14 11 11 12 12 11 11 12 13 13 13 13 12 12 12 14 13 12 12 11 11 11 11 12 11 10 10 10 10 9 9 8 7 7 7 7 7 5 4 4 5 5 4 4 4 4 4 4 4 3 3 3 3 4 4 4 4 4 5 6 6 8
16 15 14 15 13 13 11 10 12 14 13 13 12 12 13 15 13 10 10 11 11 11 12 13 11 10 10 10 11 10 9 11 13 13 13 13 13 12 12 12 13 13 14 13 12 12 12 12 10 9 8 9 9 8 8 8 7 6 6 6 6 7 7 6 2 3 4 3 4 5 5 4 4 3 4 4 4 3 3 3 4 4 4 4 5 5 6
12 13 15 15 13 11 9 8 7 11 10 10 12 13 14 14 13 12 12 12 12 12 11 12 12 10 9 10 10 10 11 12 12 11 10 12 13 12 12 13 13 13 13 14 14 12 12 12 9 7 8 8 8 8 8 8 8 7 7 7 6 6 5 5 3 4 4 4 4 3 1 2 3 5 4 4 4 4 4 4 3 4 4 4 4 5 6
8 9 11 14 13 11 10 7 9 11 12 13 12 10 12 13 13 13 13 12 12 12 13 13 12 11 11 11 14 15 15 15 12 10 11 12 13 12 12 13 14 15 16 15 13 12 12 12 10 8 8 9 11 10 9 8 8 7 8 7 7 6 5 4 4 4 4 3 3 3 3 4 4 3 3 4 4 4 4 4 4 3 4 4 5 5 5
11 10 9 10 11 14 12 9 9 11 11 12 12 11 11 13 16 16 16 14 12 12 12 13 12 10 12 14 14 15 16 14 13 13 13 14 14 12 13 14 14 14 13 14 14 13 12 12 13 12 9 11 11 13 14 11 8 8 7 6 5 5 5 5 4 4 4 4 3 3 3 2 1 2 2 2 2 3 3 4 5 5 4 3 3 4 5
14 15 12 11 10 11 10 9 9 9 11 10 11 12 13 13 15 17 17 17 15 12 11 11 12 13 13 12 11 11 12 12 13 13 13 12 11 13 14 13 12 12 12 13 12 12 11 12 13 13 11 10 12 13 15 16 8 7 5 5 5 5 4 4 4 4 4 4 4 4 4 3 3 3 3 4 4 3 4 4 3 4 5 5 5 5 5
24 21 18 15 12 13 15 15 13 13 15 14 13 13 14 12 10 13 15 14 14 12 11 13 15 15 13 12 13 12 11 11 13 14 13 12 10 12 13 13 12 11 12 11 11 10 10 11 12 12 11 11 11 12 13 15 11 8 8 8 7 7 7 6 5 5 5 5 6 6 6 6 6 6 5 4 5 5 5 5 4 3 4 4 4 4 4
26 21 20 20 20 21 20 16 16 16 16 17 15 17 16 15 15 15 15 14 12 12 14 14 14 15 15 15 14 14 13 12 12 12 11 10 10 13 13 12 12 12 11 10 11 10 11 12 11 11 11 11 12 12 14 14 12 9 9 9 9 8 8 7 7 7 7 6 6 7 6 6 6 6 6 6 6 6 6 4 6 5 5 4 5 4 3
23 23 24 23 21 21 19 18 18 17 15 15 16 16 16 16 15 16 15 15 13 12 13 13 14 14 14 15 15 14 14 13 12 10 10 10 10 11 11 13 14 12 12 14 12 11 15 18 13 11 11 11 11 10 11 13 12 10 10 9 9 9 9 9 8 8 7 7 6 6 6 7 7 7 7 7 6 6 6 6 6 6 6 5 5 4 4
18 17 18 20 20 19 19 19 19 18 17 18 17 16 16 16 15 16 13 13 12 13 12 12 15 16 14 13 13 13 13 13 14 14 12 11 13 12 13 14 12 12 13 12 11 12 15 15 13 11 11 11 11 11 9 12 10 10 10 10 10 9 9 9 8 8 8 9 9 9 9 9 8 8 8 8 8 8 8 7 7 7 6 6 5 4 4
16 16 16 15 15 16 15 14 14 16 16 15 15 16 17 15 15 14 13 13 14 13 11 14 17 14 12 12 12 12 13 13 13 14 15 14 13 12 14 12 11 11 15 14 14 14 13 14 14 13 12 10 11 15 14 11 10 10 10 10 9 9 9 10 9 9 9 9 9 9 9 9 9 9 9 9 9 9 9 9 8 7 6 6 6 5 4
15 15 14 13 13 15 14 13 14 15 14 13 12 12 12 12 13 13 13 13 12 11 12 11 13 14 13 11 10 10 9 10 12 12 13 14 14 13 12 10 10 12 17 13 13 12 12 12 12 13 17 14 12 16 15 12 11 11 11 10 10 10 10 10 9 9 9 9 9 9 9 9 9 9 10 10 10 10 10 9 8 8 7 6 5 5 5
16 15 14 13 13 13 12 12 13 13 13 13 12 13 13 12 12 12 12 12 12 12 12 13 13 13 12 11 10 9 9 9 9 9 9 10 11 13 13 10 9 13 18 12 12 12 12 12 12 16 20 19 19 17 12 12 12 11 11 11 11 11 11 10 10 10 10 10 9 9 10 10 10 10 10 10 9 10 10 11 10 9 8 7 7 6 5
15 14 14 14 14 13 12 11 12 12 11 11 13 13 12 12 12 12 11 12 13 13 12 11 11 10 10 10 9 9 9 10 10 9 9 10 11 11 11 11 11 11 13 14 12 12 12 13 16 19 16 16 16 17 12 12 12 11 11 11 11 11 11 11 11 11 11 11 11 10 10 10 10 10 10 10 10 9 10 10 10 10 10 10 9 8 8
14 13 13 14 14 13 11 11 10 10 11 12 13 13 12 10 11 11 11 11 11 11 11 11 11 11 10 9 9 9 10 10 11 11 10 10 10 9 10 11 10 12 17 16 11 11 12 20 21 18 18 17 16 13 12 12 11 11 11 11 11 11 11 11 11 11 11 11 11 11 11 10 11 11 11 10 10 11 11 11 10 11 11 10 10 11 9
12 12 12 12 12 12 12 11 12 13 12 12 11 10 10 10 10 9 10 11 11 11 11 11 12 12 12 12 10 9 8 9 10 9 9 8 9 9 11 13 14 17 14 12 12 12 13 14 16 17 16 16 16 12 12 12 12 12 12 11 11 11 11 11 11 11 11 10 10 11 11 11 10 10 11 11 13 13 12 10 8 11 10 11 10 11 11
12 12 12 12 12 12 12 12 12 11 11 11 10 9 9 9 10 10 10 10 10 11 11 11 10 11 12 12 11 11 10 8 8 9 8 8 8 8 9 9 10 11 12 14 15 17 22 19 18 16 16 15 13 12 13 12 12 12 12 12 11 11 11 11 10 10 10 11 11 11 11 11 11 11 11 11 11 12 12 13 10 11 12 10 10 10 11
12 12 12 13 13 12 11 10 10 10 9 8 8 7 8 9 10 10 9 9 10 9 10 11 12 11 11 11 11 9 9 9 8 7 7 8 8 8 8 10 14 13 9 9 10 10 15 16 15 15 14 14 11 11 11 11 11 11 11 11 11 11 11 11 11 11 10 11 11 11 11 11 11 11 11 11 11 11 11 11 10 10 9 9 10 10 10
11 11 11 11 11 11 10 9 9 9 8 8 8 7 7 8 9 9 9 9 9 9 9 9 9 9 9 8 8 8 8 9 9 8 8 9 9 9 9 9 9 12 12 8 9 9 11 14 14 14 12 10 11 10 10 10 11 11 10 11 10 10 11 11 12 13 12 11 11 11 11 11 10 11 11 10 10 11 11 11 11 13 18 14 12 11 10
10 10 9 9 9 9 11 10 9 9 8 9 9 8 9 9 10 10 10 9 8 9 8 9 9 8 8 8 7 8 8 7 8 9 8 7 7 9 10 8 9 9 8 8 8 8 9 9 10 10 10 10 10 10 10 10 9 10 10 10 11 10 10 11 11 11 11 11 11 11 11 10 10 10 10 10 10 10 10 10 10 11 11 11 11 11 11
11 10 8 8 8 9 9 10 10 9 9 9 9 8 9 8 8 9 10 11 9 8 8 7 8 8 8 7 7 7 7 8 7 7 8 8 7 6 7 8 7 7 8 8 8 8 8 9 10 12 11 9 9 8 9 10 9 9 9 9 8 10 10 10 9 9 10 10 10 11 11 11 10 10 10 10 10 10 10 10 10 10 10 10 10 10 10
Wind_Direction
332 310 306 325 334 266 282 231 207 208 215 220 219 221 224 219 222 235 205 218 225 231 231 193 179 206 228 222 245 321 33 331 303 267 257 217 191 185 187 190 196 204 208 212 213 208 204 203 203 204 204 203 200 199 199 197 198 198 192 189 190 191 191 194 196 195 194 197 200 200 201 201 204 207 209 210 210 210 210 212 211 212 210 208 204 202 202
290 273 261 255 245 246 234 237 235 226 223 227 232 237 234 231 235 241 249 238 234 232 239 247 256 258 261 278 298 294 273 287 20 300 258 299 318 172 186 190 197 204 212 212 210 208 204 204 204 204 203 202 200 199 198 198 198 197 191 191 190 190 192 194 193 190 191 193 195 197 199 200 201 204 207 208 209 209 210 211 211 211 211 210 208 204 202
248 232 239 229 236 246 256 244 245 241 237 237 236 240 241 251 254 246 240 243 248 234 243 255 256 257 258 256 254 271 284 290 287 289 291 284 284 300 261 179 195 202 210 214 211 206 206 204 204 203 203 202 201 201 198 197 196 195 194 191 191 192 195 193 187 186 188 193 193 195 198 198 200 201 204 206 208 208 210 210 211 209 209 210 211 210 207
237 207 221 228 254 265 259 251 239 233 229 230 222 226 227 233 235 246 251 251 244 246 246 253 252 246 250 255 258 257 266 279 283 283 282 285 290 293 295 204 180 199 210 210 210 213 212 208 203 202 202 201 199 202 198 197 194 191 195 194 194 195 194 187 185 186 190 190 192 195 195 199 198 199 201 204 206 206 207 208 209 210 210 211 213 214 212
229 153 228 255 274 279 255 236 227 228 229 234 234 233 227 230 234 237 237 242 255 259 252 247 241 247 246 253 260 263 263 264 268 272 272 274 277 279 271 244 231 224 225 216 213 221 224 216 209 206 199 198 203 201 198 194 188 191 196 198 198 199 195 189 189 191 192 192 195 194 196 195 196 197 200 203 205 206 207 207 207 210 211 210 212 213 214
240 228 282 289 260 229 239 254 215 217 222 218 225 227 226 225 219 238 246 253 252 243 238 242 244 247 252 258 259 259 266 269 265 262 263 266 268 269 267 259 255 244 225 230 230 225 225 226 221 211 203 203 202 197 191 185 190 192 195 198 197 198 195 195 194 194 196 196 197 198 195 193 194 198 201 205 206 208 209 208 210 212 213 213 214 214 214
257 278 286 253 229 230 91 124 93 111 234 236 241 239 235 228 224 231 240 244 249 252 261 251 254 259 266 261 262 261 256 256 258 263 267 268 263 259 263 260 262 255 246 242 238 237 236 229 221 213 208 208 198 188 187 186 189 189 194 195 196 192 192 193 195 197 199 201 201 197 195 195 196 202 206 208 207 210 210 211 212 213 213 214 216 216 214
274 273 234 228 222 54 338 157 107 124 152 213 223 244 237 243 250 245 247 244 247 250 249 255 260 267 270 269 265 263 267 267 258 265 267 266 266 263 259 262 259 271 273 269 265 258 249 230 221 214 211 201 194 191 186 185 185 188 187 191 194 192 191 192 193 195 197 199 199 197 197 198 201 206 209 209 210 208 213 215 216 216 216 218 218 216 215
251 236 237 243 304 299 238 242 193 186 183 125 216 232 218 220 240 260 292 278 260 254 251 249 254 258 262 260 256 258 260 250 241 250 259 266 269 275 278 275 274 281 283 279 277 273 255 242 228 216 206 197 192 186 186 191 187 187 187 190 195 196 196 195 195 195 195 195 195 197 197 199 204 208 210 211 210 206 211 215 216 216 217 217 218 217 217
235 246 246 245 241 248 233 213 102 117 98 92 85 283 262 107 76 31 331 288 296 287 280 272 265 262 256 257 259 261 256 244 235 234 235 231 248 264 281 293 283 273 267 269 265 258 256 245 235 219 203 196 190 188 187 186 186 187 191 197 197 198 200 198 194 192 192 193 194 196 199 203 206 209 210 210 210 205 211 213 217 220 218 220 219 218 219
224 229 238 236 238 236 28 167 138 115 133 83 136 154 246 109 51 46 334 300 303 297 296 306 300 245 247 252 263 260 259 238 221 215 204 218 227 272 289 293 292 290 291 286 277 258 244 239 225 216 205 194 186 187 186 190 191 193 197 200 199 200 199 194 191 190 193 195 197 199 202 207 209 211 211 212 212 209 214 217 222 223 222 224 223 222 223
231 238 231 234 232 246 159 153 105 113 90 68 230 246 219 86 40 22 359 325 313 320 321 305 275 251 244 251 292 349 351 114 117 167 167 177 230 252 285 273 289 293 291 278 247 238 228 224 217 205 201 191 188 190 191 191 194 199 201 198 196 196 194 192 193 195 196 197 199 201 204 207 208 211 211 212 212 212 216 218 222 223 223 226 228 227 226
222 230 248 258 254 239 271 201 143 103 12 311 227 225 73 106 2 351 333 309 326 311 303 295 269 249 265 316 332 315 13 59 97 81 55 37 335 309 307 321 314 286 277 287 310 346 38 208 196 195 195 188 187 192 191 195 201 201 195 191 189 189 190 193 195 197 199 201 203 206 207 207 208 210 209 213 214 215 218 219 222 223 225 228 229 231 231
221 221 232 243 256 249 232 232 252 268 296 217 222 68 171 171 351 21 285 308 307 307 286 284 277 287 294 299 309 316 287 329 81 78 99 156 254 286 302 303 283 273 268 127 173 141 153 190 198 191 192 189 181 180 189 197 199 194 187 185 183 186 188 194 198 199 201 202 204 208 207 204 206 210 212 213 213 216 219 220 221 222 225 234 240 243 243
230 229 237 231 239 190 219 242 222 236 250 276 38 329 6 1 346 344 352 311 317 313 298 292 293 289 286 282 289 326 18 342 99 110 133 235 295 307 291 272 271 257 174 96 78 67 81 106 154 163 172 173 168 168 182 189 189 184 176 177 179 184 188 194 198 199 200 200 198 200 201 201 204 207 206 208 214 218 221 227 231 236 236 237 239 245 244
216 218 222 221 204 3 345 306 239 179 244 288 323 313 293 347 344 347 328 332 340 314 297 296 301 298 289 272 265 284 318 53 29 41 354 298 260 245 317 3 40 191 139 107 87 76 64 66 103 143 159 155 155 154 139 115 131 137 152 164 172 182 187 191 190 193 196 196 196 197 201 205 208 211 212 213 215 222 228 232 238 237 239 239 240 242 245
262 249 250 318 340 308 310 319 305 308 327 339 321 307 302 309 320 351 295 318 326 311 302 294 289 289 281 277 277 272 268 224 209 206 214 250 154 87 54 65 64 101 117 118 110 94 80 69 64 85 115 123 114 105 99 123 140 156 160 163 169 179 184 187 187 192 194 195 198 204 205 206 208 211 214 215 220 229 229 233 237 241 243 241 241 244 247
284 279 277 285 277 284 288 303 315 314 316 316 309 302 294 296 315 304 303 314 311 304 297 297 292 278 284 281 265 256 251 227 80 109 204 184 138 122 122 108 89 93 114 114 105 94 88 77 76 75 82 93 96 94 95 99 122 140 158 165 174 180 185 189 192 197 198 199 202 202 204 206 214 223 226 228 230 231 234 234 236 238 245 246 246 247 249
275 264 261 267 276 282 299 305 306 311 307 300 301 294 293 301 299 293 278 285 287 292 293 285 288 284 272 260 255 263 231 207 193 171 157 150 145 130 108 100 108 100 101 96 93 92 87 79 78 81 89 93 99 110 113 125 131 136 141 150 160 170 175 181 180 191 189 196 194 193 204 215 221 224 226 233 233 234 237 240 241 244 242 242 244 249 253
255 262 279 290 290 292 290 287 297 300 301 304 302 297 297 289 280 269 271 259 257 274 275 248 255 264 253 244 222 211 207 197 175 163 151 139 127 116 113 98 75 85 86 89 85 85 81 75 71 71 76 83 95 100 102 112 119 125 126 139 146 143 146 151 154 160 166 151 178 192 197 208 216 218 219 219 230 233 234 237 243 245 244 247 248 250 252
261 265 266 269 276 273 273 280 279 275 280 290 290 282 273 260 251 245 224 235 247 238 264 275 243 233 212 210 196 199 188 185 167 147 135 134 125 110 100 90 82 79 81 83 83 81 85 83 83 80 75 77 83 91 97 100 99 100 87 84 97 107 110 112 100 112 148 158 185 208 197 195 182 44 28 24 11 333 292 339 311 292 271 269 265 265 266
254 256 261 263 261 257 247 240 258 310 310 291 276 273 259 248 236 215 183 156 154 177 61 37 45 210 164 188 195 182 163 157 149 136 130 119 114 111 106 102 99 98 91 90 88 85 84 82 79 83 85 88 90 96 110 116 118 119 126 127 124 120 120 119 126 121 113 95 91 100 122 103 114 74 60 52 11 315 290 25 42 43 43 290 300 314 303
256 252 251 256 268 280 284 297 306 318 320 322 305 277 255 240 224 201 168 146 135 126 103 79 97 114 125 125 133 115 118 126 135 128 125 118 118 113 111 109 103 99 97 94 93 89 86 86 86 87 87 87 87 87 89 96 115 122 126 124 118 114 112 111 95 118 113 109 110 109 104 109 122 145 172 86 51 41 33 317 322 334 300 257 264 261 258
266 268 273 275 275 276 279 285 293 289 293 299 294 297 281 236 207 182 151 141 142 129 115 97 96 109 115 131 126 123 126 117 110 105 106 116 114 107 106 107 108 108 102 98 96 94 93 88 86 85 86 86 86 87 86 93 100 103 105 107 104 102 102 106 91 93 93 99 104 108 109 113 120 126 126 127 116 24 271 355 299 280 288 293 301 313 303
262 264 268 270 271 270 272 281 279 280 277 277 286 284 273 235 185 148 126 114 112 128 127 118 114 115 107 85 93 97 99 108 108 95 81 69 83 101 109 110 108 106 105 105 101 98 96 95 91 87 83 83 85 86 87 87 91 90 83 79 86 88 92 89 84 84 92 90 90 89 91 93 82 59 70 68 84 111 211 231 219 231 266 284 305 327 311
255 260 268 269 266 261 265 270 270 267 274 276 270 266 254 213 157 122 113 115 117 118 119 114 106 106 120 123 113 108 100 83 79 110 111 111 109 106 105 106 104 103 102 99 98 97 95 92 92 90 89 87 86 87 87 88 89 90 82 77 75 81 88 86 83 85 86 83 83 80 71 66 63 76 63 55 67 29 14 25 231 244 239 234 42 325 300
252 260 266 264 258 254 249 248 261 284 298 290 285 247 194 146 120 104 97 96 109 110 104 102 106 102 105 103 98 98 101 107 103 94 94 97 96 95 97 99 99 96 93 92 90 86 83 83 84 83 83 84 88 90 91 92 92 91 91 89 88 70 61 74 88 86 84 82 77 73 74 70 79 78 85 93 79 48 22 359 355 355 3 247 174 192 266
259 257 246 243 247 247 244 246 254 259 268 276 269 205 165 133 109 99 97 95 94 89 84 89 97 100 91 122 118 108 100 94 90 90 92 92 90 91 94 98 98 92 85 80 78 78 82 78 78 78 76 74 79 86 90 91 88 86 86 89 86 87 85 79 77 75 76 72 58 61 54 66 58 55 43 34 18 41 19 350 344 353 356 342 318 291 262
251 250 242 242 249 256 263 268 271 269 266 254 234 190 155 111 100 90 79 78 71 83 76 67 63 83 105 99 91 85 83 84 82 80 77 77 88 95 98 97 94 91 87 85 83 79 75 71 74 78 80 79 79 76 76 73 72 72 75 78 79 79 74 69 66 73 71 62 58 30 16 27 37 42 47 44 24 14 4 6 344 343 344 342 333 315 294
240 236 236 236 237 239 242 245 251 243 227 207 188 174 131 105 99 98 97 81 72 68 78 73 75 81 79 78 76 78 76 73 69 69 72 70 68 73 84 87 86 85 86 77 73 75 76 73 68 64 73 79 76 78 79 81 78 73 69 57 45 43 51 32 65 76 71 72 61 223 74 56 61 32 38 46 51 10 351 357 346 329 341 351 346 342 344
241 239 231 226 227 229 228 232 225 200 185 179 164 152 117 96 97 105 102 98 82 73 68 60 53 62 69 73 73 71 69 63 57 57 56 53 51 49 46 52 63 73 75 72 66 61 63 66 66 63 55 62 69 69 70 71 71 74 79 86 79 79 44 8 35 55 70 55 52 31 37 15 45 29 30 4 12 2 347 342 346 340 347 348 345 343 341
245 246 224 209 210 214 214 201 168 174 170 158 155 143 117 110 114 117 112 99 93 90 81 75 69 54 48 60 70 70 64 58 55 55 52 51 49 41 43 51 60 62 60 55 50 47 46 46 48 45 47 56 59 64 69 70 78 79 80 81 84 90 55 299 100 65 61 59 41 43 26 13 23 5 12 4 346 346 351 351 343 344 341 337 334 337 341
230 212 194 183 169 162 153 158 170 164 158 155 145 128 114 111 116 116 106 104 99 91 87 81 71 67 65 57 58 58 57 69 61 45 46 51 46 43 47 60 63 63 62 55 47 44 42 39 35 35 46 58 61 57 66 77 73 74 82 79 90 91 94 67 18 67 72 59 58 28 25 18 2 14 22 346 342 329 333 337 336 329 327 329 327 334 4
155 147 142 141 133 134 139 145 160 144 140 129 120 116 111 114 114 112 110 103 92 82 72 74 77 70 64 67 64 62 58 57 59 59 40 44 51 52 61 66 67 65 62 57 50 46 45 41 32 39 43 52 53 57 53 63 71 67 67 69 70 73 73 80 89 59 54 46 44 91 68 23 16 13 2 0 345 341 332 322 328 322 319 320 326 325 3
102 113 123 123 126 131 131 141 139 131 129 120 110 104 112 116 115 107 95 85 82 87 91 86 79 79 78 73 71 70 65 64 59 50 45 46 49 47 59 68 69 67 62 56 49 47 40 33 19 38 47 46 45 42 37 49 57 59 60 63 64 61 57 57 48 47 43 53 41 39 33 18 26 27 5 343 352 338 332 332 316 320 316 319 325 330 336
83 95 106 112 123 130 131 128 127 120 112 110 110 110 110 113 107 99 91 87 88 85 82 80 75 66 64 67 68 69 69 64 57 51 45 48 51 53 54 56 56 55 51 46 37 39 38 32 13 20 42 41 42 41 25 12 53 49 46 41 54 59 66 54 48 48 36 28 32 31 29 91 210 20 351 358 7 338 331 329 325 312 308 317 326 317 319
54 52 51 75 93 112 112 103 96 93 99 98 98 100 93 87 92 96 97 94 86 77 76 76 72 68 62 59 61 62 59 61 61 56 50 44 43 49 50 44 37 39 42 44 29 26 30 31 11 21 39 44 47 42 27 10 27 41 37 36 40 29 31 37 32 23 30 27 6 5 356 348 337 353 348 340 332 347 325 324 335 320 327 337 328 322 325
54 55 50 46 51 77 85 85 82 81 82 73 72 79 90 83 77 83 84 80 80 78 78 75 77 72 65 57 56 53 53 50 54 55 53 45 36 43 40 37 33 28 36 34 24 25 23 15 20 31 37 41 43 43 30 15 22 44 52 44 41 36 31 26 27 17 18 17 13 11 10 5 356 357 346 347 344 336 333 322 323 320 316 310 316 311 315
51 50 50 52 53 53 54 57 63 64 65 72 75 80 81 78 77 76 75 71 71 73 72 69 67 66 64 63 60 55 51 49 49 51 50 50 46 50 48 41 38 34 31 28 32 32 24 26 36 35 35 29 31 38 29 25 31 45 47 48 45 42 37 32 30 29 24 19 20 12 11 13 5 356 354 352 342 332 322 352 321 312 300 305 309 316 324
47 46 45 49 50 51 50 51 55 59 58 62 68 67 68 67 67 67 65 62 51 48 60 67 66 65 63 63 63 56 50 46 44 49 57 55 53 56 54 43 35 33 32 33 36 35 31 31 35 39 34 31 25 30 36 31 38 47 46 47 45 44 39 29 25 21 17 10 19 17 17 21 16 6 357 348 341 341 337 332 320 320 317 316 312 330 334
57 55 53 53 52 50 50 48 47 48 51 53 56 60 61 65 65 62 54 58 58 55 48 47 65 69 67 66 64 61 55 51 49 47 48 56 58 55 53 48 31 31 33 38 40 42 41 39 35 33 34 33 33 26 39 42 46 51 51 47 47 44 44 39 33 26 19 17 16 15 16 11 14 13 9 360 355 349 349 349 342 337 335 330 328 327 315
61 62 63 63 65 63 58 58 61 56 48 47 48 53 57 60 66 66 64 63 62 54 47 50 53 59 61 63 65 65 62 58 56 55 50 50 49 54 56 49 33 36 35 40 42 44 41 41 37 33 28 32 38 36 40 47 47 49 48 47 46 46 45 44 43 40 37 32 27 23 19 14 12 14 12 11 10 5 357 349 345 351 352 351 335 328 333
53 57 59 58 60 63 62 60 58 62 59 48 45 49 52 52 55 57 56 53 50 49 48 45 45 47 49 48 46 46 48 58 61 59 59 54 50 47 52 49 41 37 39 44 45 46 41 37 34 32 28 31 36 37 44 48 48 47 47 47 45 43 42 39 35 35 34 34 31 29 23 17 16 15 14 15 13 12 2 1 2 3 5 3 358 360 6
47 50 52 52 49 51 55 57 58 56 53 45 39 40 43 44 44 51 53 51 48 44 46 48 48 48 46 47 48 48 46 49 56 58 63 63 58 51 44 44 41 40 42 47 46 46 41 35 30 26 29 26 33 39 44 46 46 47 47 45 46 45 43 41 39 36 35 33 35 37 36 32 27 23 22 18 16 17 12 8 9 12 13 12 12 10 21
51 50 51 54 56 54 49 51 59 62 60 57 50 46 45 46 47 46 49 51 51 49 44 43 43 48 54 52 53 56 58 56 51 51 58 60 59 52 40 44 44 43 43 47 55 49 43 35 23 21 22 28 37 40 45 43 43 42 42 44 43 43 43 42 40 38 36 35 33 34 38 41 41 34 28 25 21 24 23 17 15 13 10 13 11 22 33
56 54 53 54 56 61 65 66 63 63 63 62 59 52 46 46 49 48 49 53 55 54 53 49 47 43 40 53 68 70 65 57 56 57 58 57 58 58 48 47 46 47 48 46 45 42 40 31 25 21 24 27 37 47 46 44 41 40 38 38 39 40 40 40 41 40 39 39 37 34 32 36 42 43 36 30 26 24 25 25 30 30 27 22 19 19 18
48 52 55 59 62 63 66 65 62 59 57 57 57 54 49 51 54 55 55 56 58 57 53 51 48 45 43 40 32 32 51 66 56 41 49 57 57 54 46 46 48 51 52 50 48 41 33 31 27 22 26 34 42 46 45 44 42 41 39 36 35 34 34 35 35 38 39 39 38 42 42 39 41 45 46 42 38 32 24 18 28 38 34 29 23 20 21
39 43 44 47 55 60 64 63 59 57 56 57 62 62 60 59 59 57 56 57 58 57 55 52 49 46 42 41 42 40 29 26 53 48 29 43 51 52 45 39 34 40 54 59 53 41 32 24 22 22 26 37 46 47 47 45 44 42 41 39 35 33 31 28 29 34 36 37 36 37 37 38 40 44 46 47 45 41 33 28 28 45 49 43 35 29 29
42 43 42 41 41 43 53 62 67 69 67 61 61 62 64 65 61 56 52 53 54 55 53 50 47 46 47 45 42 42 40 39 39 44 32 35 39 42 47 45 36 30 43 53 53 51 37 31 25 23 33 40 44 45 47 46 45 45 44 42 43 38 33 33 28 24 30 33 34 37 38 39 37 39 43 44 46 45 43 38 25 21 24 34 40 38 34
39 41 41 39 39 36 36 46 51 53 57 58 59 57 59 60 60 51 47 50 52 54 52 47 45 41 39 42 42 42 40 40 38 39 42 40 40 40 41 43 41 40 39 43 49 51 46 40 38 36 39 44 44 43 44 44 46 42 42 41 42 45 41 39 40 34 31 33 31 30 34 36 36 34 37 41 42 45 47 43 39 29 30 38 38 38 37
37 44 46 47 50 52 50 49 49 45 47 51 54 54 57 60 60 54 45 41 48 48 54 54 45 37 37 37 38 39 33 35 44 38 34 39 44 48 38 40 45 35 39 45 47 47 50 44 37 35 42 46 49 44 38 38 46 46 43 44 41 36 38 41 42 42 38 35 37 35 29 31 33 31 32 35 36 37 37 40 43 43 37 37 36 37 36
38 37 47 53 55 55 52 50 46 46 45 44 44 47 51 55 58 55 49 38 41 48 45 47 48 38 29 30 31 36 39 36 30 40 44 37 31 39 47 37 39 42 36 40 45 45 46 51 50 42 37 40 42 45 48 41 41 43 44 42 45 49 41 32 35 43 44 40 41 42 38 33 30 33 33 32 32 34 35 34 36 41 43 42 40 37 37